sat.trackr.live / text

‹ back to catalog

COSMOS 2566

NORAD 54383 · 2022-163C

PAYLOAD ACTIVE UNKNOWN

§ Identity

Operator
Country
CIS
Launch date
2022-11-30
Launch site
PLMSC
Launch vehicle
Mass (kg)
RCS (m²)

External: N2YO · Heavens-Above · Gunter

§ Orbital elements

Epoch: 2026-09-20T04:25:43.902624Z

Period
103.02 min
Inclination
67.1417°
Eccentricity
0.0009442
Mean motion
13.97722507 rev/d
Perigee alt
894.8 km
Apogee alt
908.6 km
Semi-major
7,279.8 km
B*
4.5488e-5
RAAN
230.7505°
Arg perigee
326.2296°
Mean anomaly
33.8187°
Rev number
19,384

§ Raw data

COSMOS 25661 54383U 22163C   26263.18453591 -.00000011  00000+0  45488-4 0  99972 54383  67.1417 230.7505 0009442 326.2296  33.8187 13.97722507193840

JSON: /api/v1/satellites/54383 · /tle

For live sub-satellite position, see the globe view (requires WebGL).

§ Visibility from observer

Set your observer location to see the next 7 days of passes ≥ 10°. The values pass through the URL so the page stays shareable.

No JS? Fill the form by hand. The geolocation button needs JavaScript.